Other Public Products
Issued by NWS Grand Forks, ND

Home | Current Version | Previous Version | Graphics & Text | Print | Product List | Glossary On
Versions: 1 2 3 4 5 6 7 8 9 10 11 12 13 14 15 16 17 18 19 20 21 22 23 24 25 26 27 28 29 30 31 32 33 34 35 36 37 38 39 40 41 42 43 44 45 46 47 48 49 50
000
FPUS83 KFGF 152110
OPUFGF
PRAIRIE TO PINES WEATHER ROUNDUP
NATIONAL WEATHER SERVICE EASTERN NORTH DAKOTA/GRAND FORKS ND
400 PM CDT MON SEP 15 2014

 **SATELLITE DATA USED TO AUGMENT SKY COVER AT AUTOMATED STATIONS**
 *****  WEATHER ACROSS EASTERN NORTH DAKOTA  *****

CITY           SKY/WX    TMP DP  RH WIND       PRES   REMARKS
GRAND FORKS    MOSUNNY   67  39  35 W16G24    30.12F
GRAND FORKS AF PTSUNNY   66  38  34 W15G21    30.13F
GRAND CITY NWS   N/A     64 N/A N/A W9          N/A
BUXTON         NOT AVBL
DEVILS LAKE    SUNNY     66  37  34 W18G24    30.11F
FARGO          FAIR      65  35  33 W10G17    30.17F
WAHPETON ARPT  FAIR      63  32  31 W12       30.20F
$$

 *****  WEATHER ACROSS CENTRAL AND WESTERN NORTH DAKOTA  *****

CITY           SKY/WX    TMP DP  RH WIND       PRES   REMARKS
JAMESTOWN      FAIR      63  38  39 W17       30.18F
BISMARCK       SUNNY     69  36  29 SW12G20   30.18F
MINOT          SUNNY     67  34  29 SW9G17    30.12F
MINOT AFB      SUNNY     67  36  32 SW10      30.11F
GARRISON         N/A     66  35  31 W12       30.15F
WILLISTON      SUNNY     67  32  27 S10       30.12F
DICKINSON      SUNNY     65  36  34 SW9G18    30.14F
HETTINGER      SUNNY     64  36  35 S12       30.17F
$$

 *****  OTHER OBSERVATIONS NORTHEAST NORTH DAKOTA  *****

CITY           SKY/WX    TMP DP  RH WIND       PRES   REMARKS
WALHALLA         N/A     66  37  34 W12G18    30.08F
LANGDON        FAIR      66  36  32 W21G29    30.10F
CAVALIER       FAIR      66  39  37 W9        30.09F
GRAFTON        MOCLDY    64  39  39 W15G22    30.10F
CANDO          FAIR      66  34  30 W17       30.11F
FORT TOTTEN      N/A     69  38  32 NW7       29.95
ROLLA          FAIR      63  36  36 W9        30.12F
RUGBY          FAIR      66  36  32 W14G21    30.12F
 ***** THE ABOVE OBSERVATIONS ARE NON NWS ARE NOT QUALITY
        CONTROLLED AND MAY MIS-REPORT RAIN FOR SNOW...
$$

 *****  OTHER OBSERVATIONS SOUTHEAST NORTH DAKOTA *****

CITY           SKY/WX    TMP DP  RH WIND       PRES   REMARKS
COOPERSTOWN    NOT AVBL
VALLEY CITY    FAIR      64  36  34 W14       30.18F
OAKES            N/A     64  36  34 SW9       30.21F
GWINNER        CLEAR     64  36  34 W6        30.22F
BUFFALO        NOT AVBL
WYNDMERE         N/A     64  36  34 W6          N/A
 ***** THE ABOVE OBSERVATIONS ARE NON NWS ARE NOT QUALITY
       CONTROLLED AND MAY MIS-REPORT RAIN FOR SNOW...
$$

  *****  WEATHER ACROSS NORTHERN MINNESOTA  *****

CITY           SKY/WX    TMP DP  RH WIND       PRES   REMARKS
FLAG ISLAND    CLOUDY    59  34  38 W10       30.08F
WARROAD        SUNNY     61  39  44 SW8       30.12F
ROSEAU         SUNNY     63  30  29 W8        30.12F
HALLOCK        MOSUNNY   64  30  27 NW3       30.09F
THF RVR FALLS  MOSUNNY   61  36  39 W9        30.14F
HALSTAD          N/A     66  32  28 W7          N/A
FOSSTON        PTSUNNY   63  41  45 W8G17     30.17F
BAUDETTE       SUNNY     61  34  36 W8        30.12F
WASKISH        PTSUNNY   59  39  47 SW10      30.15F
CROOKSTON      PTSUNNY   64  37  36 W15       30.15F
$$
  *****  WEATHER ACROSS CENTRAL AND WEST MINNESOTA  *****

CITY           SKY/WX    TMP DP  RH WIND       PRES   REMARKS
BEMIDJI        FAIR      58  33  37 W13       30.17F
PARK RAPIDS    FAIR      60  31  33 NW9       30.18F
WADENA         FAIR      59  34  38 NW5       30.20S
DETROIT LAKES  FAIR      61  34  36 W7        30.20F
MOORHEAD       FAIR      64  27  24 NW7       30.19F
FERGUS FALLS   FAIR      63  27  25 NW10      30.20F
ELBOW LAKE     FAIR      60  33  37 NW5       30.21F
MORRIS MN      FAIR      63  32  31 NW3       30.21F
STAPLES        FAIR      59  30  33 W9        30.19F
WHEATON        FAIR      61  32  33 W6        30.23F
$$
  *****  WEATHER ELSEWHERE ACROSS MINNESOTA  *****

CITY           SKY/WX    TMP DP  RH WIND       PRES   REMARKS
DULUTH         FAIR      57  33  40 NW8       30.15F
INTRNTL FALLS  MOSUNNY   60  35  39 W12G20    30.11F
ELY            MOSUNNY   55  36  47 NW7G18    30.12F
CLOQUET        PTSUNNY   57  30  35 W13       30.16F
BRAINERD       PTSUNNY   60  34  37 NW10      30.19F
HIBBING        FAIR      57  34  41 W8        30.16F
ALEXANDRIA     FAIR      59  33  37 NW7       30.22F
SAINT CLOUD    PTSUNNY   63  35  35 N14       30.19F
MINNEAPOLIS    FAIR      61  36  39 NW7       30.19F
$$

  *****  WEATHER ACROSS SOUTH DAKOTA  *****

CITY           SKY/WX    TMP DP  RH WIND       PRES   REMARKS
SIOUX FALLS    FAIR      62  43  49 NW7       30.24F
BROOKINGS      NOT AVBL
WATERTOWN      FAIR      61  35  37 VRB7      30.23F
HURON          SUNNY     64  33  31 N8        30.24F
SISSETON         N/A     64  31  28 MISG      30.21F
ABERDEEN       SUNNY     64  35  34 N7        30.23F
MITCHELL       SUNNY     64  38  38 NE7       30.25F
PIERRE         SUNNY     63  36  36 VRB6      30.22F
MOBRIDGE       SUNNY     64  34  32 S7        30.19F
RAPID CITY     SUNNY     66  44  45 S18G26    30.18F
$$

  *****  SOME WEATHER IN NEARBY STATES *****

CITY           SKY/WX    TMP DP  RH WIND       PRES   REMARKS
GLASGOW MT     SUNNY     67  35  30 SW8       30.08F
GREAT FALLS MT SUNNY     75  33  21 SW3       30.04F
CHEYENNE WY    MOSUNNY   69  35  28 S14       30.29F
SCOTTSBLUFF NE SUNNY     70  46  42 SE17      30.23F
OMAHA NE       FAIR      61  45  55 N14       30.24S
DES MOINES IA  PTSUNNY   62  47  57 N12       30.19R
DAVENPORT IA   CLOUDY    58  50  75 N17       30.12R
CHICAGO IL     LGT RAIN  60  51  72 NW9       30.09R
EAU CLAIRE WI  PTSUNNY   60  36  40 N8G18     30.16S
LA CROSSE WI   FAIR      62  48  60 W9        30.16F
$$

  *****  SOME NATIONAL WEATHER *****

CITY           SKY/WX    TMP DP  RH WIND       PRES   REMARKS
LA GUARDIA NY  PTSUNNY   70  43  37 S6        30.11F
RALEIGH NC     CLOUDY    72  63  73 S6        30.15S
ATLANTA GA     CLOUDY    78  69  73 NE6       30.12F
NEW ORLEANS LA TSTM      77  72  84 SE10      30.07R
OKLAHOMA CITY  PTSUNNY   83  65  54 S9        30.11F
ALBUQUERQUE NM MOSUNNY   83  54  36 VRB3      30.17F
SALT LAKE CITY MOSUNNY   87  41  19 NW10      30.08F
LOS ANGELES CA MOSUNNY   82  61  48 W18       29.79F
BOISE ID       SUNNY     90  32  12 VRB3      29.98F
SEATTLE WA     MOSUNNY   83  43  24 NW7       29.85F
$$

*** WEATHER ACROSS MANITOBA...SASKATCHEWAN AND ONTARIO ***
                ***ONTARIO***

CITY           SKY/WX    TMP DP  RH WIND       PRES   REMARKS
GERALDTON      MOSUNNY   50  41  71 NW8       30.00S
THUNDER BAY    MOSUNNY   59  39  47 NW7       30.06F
SIOUX LOOKOUT  MOSUNNY   59  39  47 W16G22    30.01F
TORONTO        LGT RAIN  57  54  88 SW9       30.08
BIG TROUT LK   CLOUDY    55  39  54 W13G21    29.79F
PICKLE LAKE    PTSUNNY   55  36  47 W12G18    29.92F
DRYDEN         SUNNY     61  36  39 W20G26    30.03F
KENORA         NOT AVBL
$$
                *** MANITOBA***

CITY           SKY/WX    TMP DP  RH WIND       PRES   REMARKS
BRANDON        MOSUNNY   64  39  39 SW14      30.07F
DAUPHIN        MOSUNNY   68  39  34 W16G24    29.98F
ISLAND LAKE    PTSUNNY   63  36  36 W10       29.83F
PILOT MOUND      N/A     64  34  32 W12G18      N/A
THE PAS        CLOUDY    63  43  48 W12       29.87S
THOMPSON       LGT RAIN  39  39 100 NE15      29.90
WINNIPEG       NOT AVBL
LYNN LAKE      CLOUDY    41  32  70 MISG      29.97R
CHURCHILL      PTSUNNY   37  27  65 N16G23    29.96S
GILLAM         DRIZZLE   36  34  93 N20G26    29.92R
$$
                ***SASKATCHEWAN***

CITY           SKY/WX    TMP DP  RH WIND       PRES   REMARKS
ESTEVAN        MOSUNNY   66  39  37 SW7       30.09F
KINDERSLEY     MOSUNNY   72  37  28 W8        30.01F
LLOYDMINSTER   NOT AVBL
PRINCE ALBERT  NOT AVBL
REGINA         MOSUNNY   68  39  34 W16G24    30.04F
YORKTON        CLOUDY    66  39  37 W16G23    29.99F


USA.gov is the U.S. government's official web portal to all federal, state and local government web resources and services.